Powrót do katalogu

COSMOS 2496

AktywnyMilitariaPO
NORAD 39761·PAYLOAD·🇷🇺 Russia

Wystrzelony May 23, 2014 z Plesetsk Cosmodrome

Loading…

Następne Przeloty (najbliższe 24 godziny)

TLE

ŚwieżeSource: Space-Track

Epoka: Sep 14, 2026, 14:47 UTC

1 39761U 14028A   26257.61652382 -.00000142  00000-0 -10975-2 0  9999
2 39761  82.4435  52.6943 0019286 243.6285 116.2815 12.42880586558623

Śledź COSMOS 2496 w czasie rzeczywistym z AllMySat

Download on the App Store